sat.trackr.live / text

‹ back to catalog

STARLINK-3176

NORAD 51106 · 2022-005C

PAYLOAD ACTIVE UNKNOWN

§ Identity

Operator
Country
US
Launch date
2022-01-19
Launch site
AFETR
Launch vehicle
Mass (kg)
RCS (m²)

Purposes: comms

External: N2YO · Heavens-Above · Gunter

§ Orbital elements

Epoch: 2026-09-20T00:09:38.348640Z

Period
93.79 min
Inclination
53.1611°
Eccentricity
0.0001167
Mean motion
15.35393884 rev/d
Perigee alt
459.0 km
Apogee alt
460.5 km
Semi-major
6,837.9 km
B*
1.0913e-5
RAAN
128.0740°
Arg perigee
80.2234°
Mean anomaly
279.8901°
Rev number
25,832

§ Raw data

STARLINK-31761 51106U 22005C   26263.00669385  .00000000  00000+0  10913-4 0  99952 51106  53.1611 128.0740 0001167  80.2234 279.8901 15.35393884258323

JSON: /api/v1/satellites/51106 · /tle

For live sub-satellite position, see the globe view (requires WebGL).

§ Visibility from observer

Set your observer location to see the next 7 days of passes ≥ 10°. The values pass through the URL so the page stays shareable.

No JS? Fill the form by hand. The geolocation button needs JavaScript.